Wind_Speed
49 49 50 50 51 51 52 52 52 52 53 53 53 53 53 53 53 52 52 52 52 52 52 52 52 53 53 53 53 54 54 55 56 56 57 57 58 58 59 59 60 60 60 60 61 61 61 61 61 61 61 61 61 61 61 61 61 61 61 60 60 60 60 59 59 59 59 59 59 59 59 59 58 58 58 57 57 56 56 56 55 55 54 54 55 56
51 51 52 52 53 53 53 53 53 53 53 53 53 53 53 53 53 52 52 52 52 53 53 53 53 54 54 55 55 55 56 57 57 58 58 59 60 60 61 61 62 62 62 63 63 63 63 63 64 64 64 64 64 64 64 64 64 63 63 63 63 62 62 62 61 61 60 60 60 60 60 60 60 59 59 59 58 58 58 57 57 57 56 56 56 56
52 52 53 53 53 54 54 54 54 54 54 54 54 54 54 54 54 54 53 54 54 54 55 55 55 56 56 57 57 57 58 59 59 59 60 60 61 61 62 62 62 63 63 63 64 64 64 64 64 64 65 65 65 65 65 65 65 65 65 65 65 65 64 64 63 63 63 62 62 61 61 61 61 61 61 60 60 59 59 59 59 59 58 58 58 58
52 53 53 53 54 54 54 55 55 55 56 56 56 56 56 56 56 56 56 56 56 57 57 57 58 58 59 59 59 59 60 60 60 60 60 60 60 60 60 60 61 61 61 61 61 61 62 62 62 62 63 63 63 64 64 64 65 65 65 65 65 66 66 65 65 65 65 64 64 63 63 63 63 62 62 62 61 61 61 60 60 60 60 60 60 60
53 53 53 54 54 54 55 55 55 56 56 56 57 57 57 57 58 58 58 58 59 59 59 60 60 60 60 61 60 60 60 59 59 58 58 57 57 56 56 56 55 55 55 55 55 56 56 56 56 57 57 57 58 58 59 60 60 61 62 62 63 64 64 65 65 65 66 66 65 65 65 65 64 64 64 64 63 63 62 62 62 62 62 62 62 62
53 53 54 54 54 55 55 56 56 56 57 57 57 58 58 58 59 59 60 60 60 60 61 61 61 61 61 60 59 58 57 56 54 53 52 51 50 50 49 49 48 48 48 48 48 48 48 49 49 49 50 50 51 51 52 53 53 54 55 56 57 58 60 61 62 63 64 65 65 66 66 66 66 66 66 66 65 65 65 64 64 64 64 63 63 63
54 54 54 55 55 55 56 56 56 57 57 58 58 59 59 59 60 60 60 61 61 60 60 60 60 59 58 56 54 53 51 49 48 46 45 44 43 43 42 42 42 42 42 42 42 42 43 43 43 44 44 45 45 45 46 46 47 47 48 49 50 51 53 54 56 58 60 61 63 64 65 66 66 66 67 67 67 67 67 66 66 66 65 65 65 65
54 55 55 55 55 55 56 56 56 57 57 58 59 59 59 60 60 60 60 60 59 58 57 56 55 53 51 49 47 46 44 43 41 40 40 39 38 38 38 38 38 39 39 39 40 40 40 41 41 42 42 43 43 43 44 44 44 44 44 44 45 45 46 47 49 51 53 55 57 60 61 63 64 66 66 67 67 68 68 68 68 68 67 67 67 67
54 54 54 54 54 54 55 56 57 57 57 58 59 59 59 59 59 59 57 56 55 53 51 49 47 46 44 42 40 39 39 38 38 37 37 37 36 36 36 37 37 38 38 39 40 40 41 41 42 42 43 43 44 44 44 44 44 44 44 44 43 43 43 43 44 45 46 48 50 53 55 58 60 62 64 65 67 67 68 69 69 69 69 69 69 68
53 53 54 54 54 54 55 56 57 57 57 57 58 58 57 56 55 54 52 49 47 45 43 42 41 39 38 37 36 36 36 37 37 37 37 37 37 37 37 38 38 39 39 40 40 41 41 42 43 43 44 45 45 46 46 46 46 46 46 45 45 44 44 43 43 43 43 43 45 46 48 51 54 57 59 62 64 65 67 68 69 69 70 70 70 70
53 53 54 54 55 56 56 56 56 56 55 55 54 54 53 50 48 46 44 42 40 39 38 37 36 36 36 36 36 36 36 37 38 38 38 38 39 39 39 39 40 40 40 41 41 41 42 42 43 44 44 45 46 46 47 47 47 47 47 47 47 47 46 45 45 44 43 43 42 43 44 45 47 50 52 55 58 61 63 65 67 68 69 70 71 71
53 54 54 55 55 55 55 55 54 53 52 50 48 47 45 43 41 39 38 38 36 35 35 35 35 35 35 36 37 37 37 38 39 39 39 40 40 40 40 41 41 41 41 41 41 41 42 42 43 43 44 44 45 46 46 47 48 48 48 48 48 48 48 47 47 46 45 44 43 43 42 42 43 44 46 48 51 54 57 60 63 65 67 69 70 70
54 54 54 54 54 53 52 51 49 48 46 43 41 40 39 38 36 35 35 35 35 35 35 35 36 36 36 36 37 38 39 39 39 40 40 40 41 41 41 41 41 41 41 41 42 42 41 42 42 43 43 43 44 45 45 46 47 48 48 48 49 49 48 48 48 47 47 46 45 44 44 43 42 42 43 44 45 48 50 53 57 60 63 65 67 69
53 53 52 51 50 48 46 44 42 41 39 38 36 35 35 35 34 33 34 34 35 35 35 36 37 37 37 37 38 38 39 40 40 40 40 41 41 41 41 42 42 42 41 41 42 42 42 41 42 42 42 42 42 43 44 45 46 46 47 48 48 49 49 49 48 48 47 47 46 46 45 44 44 43 42 42 42 43 45 47 50 53 56 59 62 65
50 49 47 46 44 42 40 38 37 36 35 34 33 33 33 33 33 34 34 35 36 36 36 37 37 38 38 38 38 39 40 40 40 40 41 41 41 41 41 42 43 42 42 42 42 42 42 41 41 42 41 41 41 41 42 43 44 45 46 47 47 48 48 48 48 48 48 47 47 46 46 45 45 44 43 42 42 41 42 43 44 46 49 52 56 59
46 43 41 39 38 36 35 34 33 33 33 32 32 33 33 34 34 35 35 36 37 37 37 37 38 38 38 38 38 39 40 41 41 41 41 41 42 42 41 42 43 43 42 42 42 42 42 42 42 41 41 40 40 40 40 41 42 43 44 45 46 47 47 48 48 48 48 47 47 47 46 46 45 44 44 43 42 41 41 41 41 42 43 46 48 51
39 37 35 34 33 32 32 31 31 31 32 32 33 33 34 34 35 36 36 36 37 37 38 38 38 39 39 39 39 39 39 40 42 42 41 41 42 42 42 42 43 43 43 42 42 42 42 42 42 41 40 40 40 39 39 40 40 41 42 43 44 45 46 46 47 47 47 47 47 47 46 46 45 44 44 43 42 42 41 40 40 40 40 41 42 45
34 32 31 31 30 30 30 30 31 32 32 33 34 34 34 35 35 36 37 37 37 38 38 39 39 39 39 39 39 39 39 40 41 42 42 42 42 42 42 42 42 43 43 42 42 42 42 42 41 41 40 39 39 39 38 39 39 39 40 41 41 42 43 44 45 46 46 46 46 46 46 45 45 44 44 43 42 42 41 40 39 38 38 38 39 40
30 30 29 30 30 30 30 31 32 32 33 34 34 34 35 35 36 36 37 37 38 38 39 39 39 39 39 39 39 39 39 39 41 42 42 41 42 42 42 42 42 43 43 42 42 42 42 41 41 40 39 39 38 38 38 38 38 38 38 39 39 40 41 42 43 44 44 45 45 45 45 45 44 44 44 43 42 42 41 40 39 38 37 37 36 36
29 29 29 29 30 30 31 31 32 33 34 34 34 35 35 36 36 37 37 37 38 38 38 38 39 39 38 38 38 38 39 39 40 41 41 41 41 42 42 42 42 43 43 42 42 42 41 41 40 40 38 38 37 37 37 37 37 37 37 37 38 38 39 40 40 41 42 43 43 43 44 44 43 43 43 43 42 41 41 40 39 38 37 36 35 35
28 29 29 30 30 31 31 32 33 33 34 34 35 35 36 36 36 36 37 37 37 37 37 37 37 37 37 37 37 38 38 38 39 40 41 42 42 42 42 42 42 43 43 42 42 41 41 41 40 39 38 37 36 36 36 36 36 36 36 36 36 37 37 38 38 39 40 40 41 41 42 42 42 42 42 41 41 41 40 40 39 38 37 36 35 34
28 29 30 30 31 31 32 32 33 33 34 35 35 35 35 36 36 36 36 36 36 36 36 36 36 36 36 36 37 37 37 38 39 40 41 42 42 42 42 42 42 43 43 42 42 41 41 40 39 38 37 36 35 35 34 34 34 34 34 34 35 35 36 36 37 37 38 38 39 39 40 40 40 40 40 40 40 39 39 39 38 37 37 36 35 34
29 30 30 31 31 32 32 33 33 34 34 34 35 35 35 35 35 35 35 35 35 35 35 35 35 35 35 36 36 37 37 37 38 40 41 42 43 43 42 42 42 43 43 42 41 41 41 40 39 37 36 35 34 33 33 33 33 32 32 33 33 33 34 34 35 35 36 36 37 37 37 38 38 38 38 38 38 37 37 37 37 36 36 35 35 34
30 30 31 31 32 32 33 33 33 33 34 34 34 34 34 34 34 34 34 34 34 34 34 34 35 35 35 35 36 36 37 37 38 39 41 42 43 43 42 41 42 42 42 41 40 40 40 39 38 36 35 34 33 32 31 31 31 31 31 31 31 32 32 32 33 33 34 34 34 35 35 35 35 35 35 35 35 35 35 35 35 35 34 34 34 33
30 31 31 32 32 32 33 33 33 33 33 33 33 33 33 33 33 33 33 33 34 34 34 34 34 35 35 36 36 36 36 36 37 38 40 42 42 42 41 40 40 41 41 40 39 38 38 38 36 35 33 32 32 31 30 30 29 29 29 29 29 29 30 30 31 31 31 32 32 32 33 33 33 33 33 33 33 33 33 33 33 33 33 33 33 32
31 31 31 32 32 32 32 32 33 33 33 33 33 33 33 33 33 33 33 33 33 34 34 34 35 35 35 36 36 36 35 36 36 37 39 40 41 41 39 39 39 39 39 38 37 37 36 36 35 33 32 31 30 29 28 28 27 27 26 26 27 27 27 28 28 29 29 30 30 31 31 31 32 32 32 32 32 32 32 32 33 33 33 33 33 33
30 31 31 31 31 31 32 32 32 32 32 32 33 32 32 32 32 32 32 32 33 33 34 34 35 35 35 35 35 35 34 34 35 36 37 39 39 39 38 37 37 37 37 37 36 35 34 34 33 32 31 30 29 28 27 25 25 24 24 24 24 24 25 26 26 27 28 28 29 29 30 31 31 32 32 32 33 33 33 34 34 34 34 34 34 34
30 30 30 30 30 31 31 31 31 31 32 32 32 32 32 32 32 32 32 32 32 33 34 34 34 35 35 35 34 34 33 33 34 35 36 37 37 37 36 36 36 36 36 35 35 33 32 32 31 31 30 28 27 26 24 23 22 21 21 21 22 23 24 24 25 26 27 28 29 29 30 31 31 32 33 33 34 34 35 36 36 36 36 36 36 36
29 29 29 29 29 30 30 30 30 31 31 31 31 32 32 31 31 32 32 32 32 33 33 34 34 34 35 35 34 33 32 31 32 34 36 36 36 36 35 35 35 34 34 35 34 33 30 29 29 29 29 27 25 23 21 20 20 19 20 20 21 22 23 24 25 26 27 28 29 30 31 32 32 33 34 34 35 36 36 37 38 38 39 38 38 38
28 28 28 29 29 29 29 29 29 30 30 30 30 31 31 31 31 31 32 32 32 33 33 33 33 33 34 34 34 32 31 30 31 33 34 35 35 35 34 34 34 33 33 34 34 33 30 27 26 26 26 25 23 21 19 19 19 19 19 20 21 21 22 24 25 26 27 28 30 31 32 33 33 34 35 35 36 37 37 38 39 39 40 40 40 40
27 27 27 28 28 28 28 29 29 29 29 29 29 30 30 30 30 31 31 31 32 32 32 33 33 33 32 33 32 32 30 29 30 32 33 34 34 33 33 33 33 32 32 32 32 32 31 27 24 23 23 22 21 19 18 18 19 19 20 20 21 21 22 23 24 26 27 28 29 30 31 33 34 35 35 36 37 37 38 38 39 40 41 41 41 41
26 26 26 27 27 27 28 28 28 28 28 28 28 29 29 29 30 30 30 31 31 31 32 32 32 32 31 31 31 31 30 29 29 31 32 33 33 33 32 32 32 32 31 30 30 31 30 27 24 21 19 19 19 19 19 19 19 20 21 22 22 22 23 23 24 25 26 27 28 30 31 32 33 34 35 36 37 37 38 39 39 40 41 42 42 42
24 25 25 26 26 26 27 27 27 27 27 27 27 28 28 28 29 29 30 30 30 31 31 31 31 31 31 30 30 29 29 29 29 30 31 32 33 32 31 31 31 31 31 30 29 28 28 26 23 20 18 18 18 19 20 21 21 22 23 24 24 24 24 25 26 27 27 28 29 30 30 31 32 33 34 35 36 37 38 39 40 41 41 42 42 42
23 23 24 24 25 25 25 26 26 26 26 27 27 27 28 28 28 29 29 30 30 30 31 30 30 30 30 30 30 29 28 28 29 30 31 32 32 32 31 31 30 30 30 29 28 27 25 24 22 21 19 18 19 20 22 23 24 24 25 26 26 27 27 27 28 29 29 30 30 31 31 32 33 33 34 35 36 37 38 39 40 41 41 42 42 42
22 22 23 23 24 24 24 25 25 25 26 26 26 27 27 28 28 29 29 30 30 30 30 30 30 30 30 30 30 29 28 28 28 29 30 31 32 32 31 30 30 30 30 29 27 26 25 23 22 22 22 21 21 22 24 25 27 27 28 28 29 29 30 30 30 31 31 32 32 32 32 33 33 34 34 35 36 37 38 39 40 40 41 42 42 42
21 22 22 23 23 23 24 24 24 25 25 25 26 27 27 28 28 29 29 30 30 30 30 30 30 29 29 29 29 29 29 28 28 29 30 30 31 31 31 30 29 29 29 29 28 26 25 24 23 23 24 25 25 25 26 27 29 30 30 30 31 31 31 32 32 32 33 33 33 33 33 34 34 34 34 35 36 37 38 39 40 40 41 41 41 42
21 22 22 23 23 23 23 24 24 24 25 25 26 27 27 28 29 29 29 30 30 30 30 30 29 29 29 29 29 30 29 29 29 29 30 30 30 30 31 30 29 29 29 29 28 28 27 26 26 26 27 28 29 29 29 30 30 31 32 32 32 33 33 33 33 33 34 34 34 34 35 35 35 35 35 35 36 36 37 38 39 40 40 41 41 41
22 22 23 23 23 23 24 24 24 25 25 26 27 27 28 29 29 29 30 30 30 30 30 30 29 29 29 29 29 30 30 30 29 29 30 30 30 30 30 30 30 29 29 29 29 29 29 29 29 29 30 30 31 32 33 33 33 33 33 34 34 34 34 34 34 34 35 35 36 36 37 38 38 38 37 37 37 37 37 38 39 39 40 40 41 41
22 23 23 24 24 24 24 25 25 25 26 27 27 28 29 29 30 30 30 30 30 30 30 30 29 29 29 29 29 30 30 30 30 30 30 30 30 30 30 30 30 30 30 30 30 30 31 32 32 33 33 34 34 35 35 35 36 36 35 35 35 35 35 35 35 35 36 37 38 39 40 40 41 41 41 40 39 39 38 38 38 39 39 40 40 40
23 23 24 24 24 25 25 25 26 26 27 27 28 29 29 30 30 30 30 30 30 30 30 30 30 29 29 29 29 30 30 30 30 30 30 30 30 31 31 31 31 31 31 31 31 32 33 34 34 35 36 37 37 37 37 36 36 37 37 37 36 36 35 36 36 36 37 38 40 41 42 43 43 44 43 43 42 41 40 40 39 39 39 40 40 40
23 24 24 25 25 25 25 26 26 27 28 28 29 29 30 30 30 30 30 30 30 30 30 30 30 29 29 29 29 29 29 30 30 30 30 30 31 31 31 31 31 32 32 32 32 33 34 35 36 36 37 38 38 38 38 37 37 37 38 38 38 37 36 36 37 37 39 40 41 42 44 45 46 46 46 46 45 44 43 42 41 40 40 40 40 40
24 24 25 25 25 25 26 26 27 28 28 29 29 30 30 31 31 30 30 30 29 30 30 30 30 29 29 28 28 28 28 29 29 29 30 30 30 31 31 31 32 32 33 33 33 34 34 36 37 37 38 39 39 39 38 37 37 37 37 38 38 38 37 36 37 38 40 41 42 43 45 46 47 47 48 47 47 46 45 44 42 42 41 41 41 41
24 25 25 25 26 26 26 27 27 27 28 28 29 30 31 31 31 31 31 30 30 30 30 30 30 29 29 28 28 27 27 27 27 28 28 29 30 30 31 32 32 32 33 34 34 35 35 36 37 38 39 39 40 40 39 38 37 37 37 37 38 38 38 37 37 38 40 41 43 44 45 46 47 48 48 48 48 47 46 45 44 42 42 41 41 41
25 25 25 25 26 26 26 26 27 27 28 28 29 30 31 32 32 32 32 31 31 31 30 30 30 30 29 28 27 26 26 25 25 25 26 27 29 30 31 31 32 33 33 34 35 36 36 37 37 38 39 39 40 39 39 38 38 37 37 37 37 38 38 38 38 38 40 41 43 44 45 46 47 47 47 47 47 47 46 45 44 42 41 41 41 41
25 25 25 25 26 26 26 26 27 27 28 29 29 30 31 31 32 32 32 32 32 31 31 31 31 30 29 29 28 27 26 25 24 24 25 26 27 28 30 31 32 33 34 34 35 36 37 38 38 38 38 39 39 38 38 38 37 37 36 36 36 37 37 37 38 39 40 41 43 44 45 46 46 47 47 46 46 45 45 44 43 42 41 40 40 40
25 25 25 25 25 26 26 26 27 27 28 28 29 30 30 31 32 32 32 32 32 32 31 31 31 31 30 30 29 28 27 26 25 25 25 25 26 28 29 30 31 33 34 35 36 37 37 38 38 38 38 38 38 37 37 37 37 37 37 36 36 36 36 37 37 39 40 42 43 44 45 45 46 46 46 45 45 44 44 43 42 41 41 40 40 39
24 24 24 25 25 25 26 26 27 27 28 28 29 29 30 31 31 32 32 32 32 32 32 32 31 31 30 30 30 29 29 28 27 26 26 26 27 28 29 30 31 32 33 35 35 36 37 38 38 38 38 38 37 37 36 36 37 37 37 36 36 36 36 36 37 39 40 42 43 44 45 45 45 45 45 44 44 43 42 41 41 40 39 39 39 39
24 24 24 24 24 25 25 26 27 27 28 28 29 29 30 30 31 32 32 32 32 32 32 32 32 31 31 30 30 30 29 29 28 28 28 28 28 29 29 30 31 32 33 34 35 36 37 37 37 37 38 38 38 37 37 36 36 36 37 36 36 37 37 37 38 39 41 43 44 45 45 45 45 44 43 43 43 42 41 40 39 38 38 37 37 38
23 23 23 23 24 24 25 25 26 27 27 28 28 29 29 30 31 31 32 32 32 32 32 32 32 31 31 30 30 30 30 29 29 29 29 29 29 30 30 31 32 33 33 34 35 36 36 37 37 37 37 37 38 38 38 37 37 36 37 37 37 38 38 39 39 41 43 44 45 46 46 46 45 44 43 43 42 42 40 39 37 36 35 35 35 36
22 22 23 23 23 24 25 25 26 27 27 28 28 29 29 30 31 31 32 32 33 32 32 32 32 32 31 30 30 30 29 29 29 29 29 29 30 31 31 32 33 33 34 35 35 36 36 36 37 37 37 37 38 39 39 39 38 37 37 37 38 39 40 41 43 44 45 47 48 48 47 46 45 44 43 43 42 42 41 40 37 35 34 33 33 34
22 22 23 23 23 24 25 25 26 27 28 28 29 29 30 31 31 32 32 33 33 33 33 32 32 32 31 31 30 30 29 29 29 29 29 29 30 30 31 32 33 34 34 35 35 36 37 37 37 36 36 36 37 39 40 40 40 39 39 39 40 41 43 45 46 47 48 49 49 49 48 47 45 44 43 42 42 43 42 41 38 35 33 32 31 32
Wind_Direction
293 294 294 294 293 293 293 293 293 293 293 293 293 293 293 293 293 294 294 293 293 293 293 293 292 292 292 291 291 291 290 290 289 289 289 288 288 287 287 286 286 286 285 285 284 283 283 282 282 281 280 280 279 278 277 277 276 275 274 273 273 272 271 270 269 268 267 267 266 266 266 266 267 267 267 266 266 266 265 265 265 264 264 263 263 262
293 294 294 293 293 294 294 294 294 294 294 294 294 294 294 294 294 294 294 294 294 294 293 293 293 292 292 291 291 291 290 290 289 289 289 288 288 287 287 287 286 286 286 285 285 284 284 283 282 282 281 280 280 279 278 278 277 276 275 275 274 273 272 271 270 269 268 267 266 266 265 265 265 265 265 265 265 265 264 264 263 263 262 261 261 261
293 293 293 293 294 294 294 295 295 295 295 295 295 296 296 296 296 296 295 295 295 294 294 294 294 293 293 292 292 291 291 290 290 290 289 289 289 288 288 288 287 287 286 286 285 285 284 284 283 282 282 281 280 280 279 278 278 277 276 275 275 274 273 272 271 270 269 268 267 266 265 265 264 264 264 264 264 263 263 263 262 262 261 260 260 259
293 293 293 294 294 295 295 296 296 296 297 297 297 297 297 297 297 297 297 296 296 296 295 295 294 294 294 293 293 293 292 292 292 291 291 291 290 290 290 289 289 288 288 287 287 286 285 285 284 284 283 282 281 280 280 279 278 277 277 276 275 274 273 273 272 271 270 269 268 267 266 265 264 264 263 263 263 263 262 262 262 261 261 260 259 259
293 294 294 295 295 296 296 297 297 297 298 298 298 298 298 298 298 298 297 297 297 296 296 295 295 295 294 294 294 294 294 294 293 293 293 293 292 292 292 291 291 290 290 289 289 288 288 287 287 286 285 285 284 283 282 281 280 279 278 277 276 275 274 273 272 271 270 269 269 268 267 266 265 264 264 263 263 262 262 262 261 261 260 260 259 259
294 295 295 296 297 297 297 297 297 298 298 298 298 298 298 298 298 297 297 297 297 296 296 295 295 295 295 295 295 295 295 295 295 295 295 295 294 294 294 294 293 293 293 292 292 292 291 291 290 290 289 288 288 287 286 285 284 282 281 280 278 277 275 274 273 272 271 270 269 268 267 266 265 264 264 263 263 262 262 262 261 261 260 260 259 259
295 295 296 296 297 297 297 297 297 297 297 297 297 297 297 297 297 297 296 296 296 296 295 295 295 295 295 296 296 296 296 296 296 296 296 296 297 297 296 296 296 296 296 296 296 296 295 295 294 294 293 293 292 291 290 289 288 287 286 284 283 281 279 277 275 274 272 271 269 268 267 266 265 264 264 263 263 262 262 262 261 261 261 260 260 259
295 296 296 296 296 296 297 297 297 297 297 297 296 296 296 296 296 296 295 295 295 295 295 295 296 296 296 297 297 297 297 298 298 298 298 298 298 299 299 299 299 299 299 299 299 299 298 298 298 297 297 296 295 295 294 293 292 292 290 289 288 286 284 282 280 278 276 274 272 270 268 267 266 265 264 263 262 262 262 262 262 261 261 261 260 260
295 295 296 295 296 296 296 296 296 296 296 296 295 295 295 295 295 295 295 295 295 296 296 297 297 298 298 298 299 299 299 299 299 299 299 299 299 299 299 300 300 300 300 300 300 300 300 299 299 298 298 297 297 296 296 295 295 294 293 292 291 290 289 287 285 283 281 278 276 273 271 269 267 266 264 263 262 262 261 261 261 261 261 261 261 261
295 295 295 295 295 295 295 295 295 295 295 295 295 294 294 294 294 295 295 295 296 297 298 298 299 299 300 300 300 300 300 300 300 300 299 299 299 299 299 299 299 299 300 299 299 299 299 299 298 298 297 297 296 296 296 295 295 294 294 293 293 292 291 291 289 288 286 284 282 279 276 274 271 269 267 265 264 262 261 261 261 261 261 261 261 261
295 295 295 295 295 295 295 295 295 295 295 295 295 295 295 295 296 296 297 297 298 298 299 299 300 300 301 301 301 300 300 300 300 300 300 300 300 300 300 300 299 299 299 299 298 298 298 297 297 297 296 296 295 295 295 294 294 293 293 292 292 292 292 291 291 290 289 288 286 284 282 279 277 274 271 269 266 264 263 262 261 261 260 261 261 261
295 295 295 295 295 295 295 295 295 295 295 295 295 296 296 297 298 298 299 299 300 300 300 300 300 301 301 301 302 301 301 301 301 301 301 301 301 301 300 300 300 299 299 298 297 297 296 296 295 295 295 294 294 294 293 293 292 292 291 291 291 290 290 290 290 290 290 289 289 288 286 284 282 279 277 274 271 268 266 264 263 262 261 261 261 261
295 296 296 296 295 295 295 296 296 296 296 296 297 297 298 299 300 300 300 301 301 301 301 301 301 302 302 302 302 303 303 302 302 302 302 302 302 302 301 301 300 299 299 298 297 296 296 295 294 294 293 293 292 292 292 291 291 291 290 290 289 289 289 288 288 288 288 288 288 288 287 287 285 284 282 279 276 273 271 268 266 264 263 262 261 261
296 296 296 296 296 296 296 297 297 297 298 298 299 299 300 301 301 302 302 301 301 302 302 302 302 303 303 304 304 304 304 303 303 303 303 303 303 303 302 301 301 300 299 299 298 297 296 295 294 293 292 292 291 290 290 289 289 289 289 288 288 288 287 287 287 287 287 287 287 287 287 287 286 286 285 283 281 279 276 273 270 268 266 264 263 262
296 296 296 296 297 297 298 298 299 299 299 300 301 301 301 302 302 302 302 302 302 302 303 303 303 304 305 305 305 305 305 305 304 304 304 304 303 303 303 302 301 300 300 300 299 297 297 296 295 294 293 292 290 289 289 288 288 287 287 287 287 287 286 286 286 286 286 286 286 286 286 286 286 286 286 285 284 283 281 279 276 273 271 268 266 265
296 296 297 297 298 298 299 300 300 300 301 301 301 302 302 302 302 302 302 303 303 304 304 304 305 305 305 306 306 306 306 306 305 304 304 304 304 303 303 303 302 301 301 300 299 298 297 296 295 294 293 292 291 290 288 287 287 286 286 286 286 285 286 285 285 285 285 285 285 285 285 285 285 286 286 286 286 285 284 283 281 279 277 274 271 269
297 297 298 299 299 300 300 301 301 301 301 301 302 302 302 302 302 303 303 304 304 305 305 305 306 306 306 306 307 307 307 306 305 305 305 304 304 304 304 303 302 301 301 301 300 299 298 297 297 296 295 294 292 291 290 288 287 286 285 285 285 285 285 285 285 285 285 285 284 284 284 285 285 285 285 286 286 286 286 286 285 284 282 280 278 275
298 299 299 300 300 300 301 301 301 301 301 301 301 302 302 303 303 304 304 305 305 306 306 307 307 307 307 307 308 308 307 306 306 305 305 305 304 304 304 303 302 302 301 301 300 299 299 298 298 297 296 295 294 293 292 290 289 287 286 285 285 284 284 284 284 284 284 284 284 284 284 284 285 285 285 286 286 287 287 287 287 287 286 284 283 281
299 300 300 300 301 301 301 302 302 301 301 301 302 303 303 304 304 305 305 306 306 307 307 307 308 308 308 308 309 309 308 307 306 306 306 305 305 305 304 304 303 302 302 301 301 300 300 299 299 298 298 297 297 296 294 293 291 290 289 287 286 285 285 284 284 284 284 284 285 285 285 285 285 285 286 286 286 287 287 288 288 288 288 288 287 285
301 301 301 301 302 302 302 302 302 302 302 302 303 304 304 305 305 306 306 307 307 307 308 308 308 309 309 309 309 309 309 308 307 306 306 306 306 305 305 304 303 302 302 302 302 301 301 300 300 300 299 299 298 298 297 295 294 293 291 290 288 287 286 285 285 285 284 285 285 285 285 286 286 286 286 287 287 288 288 288 289 289 290 290 289 289
302 302 302 302 302 302 302 302 303 303 303 304 304 305 305 306 306 306 307 307 307 308 308 308 309 309 310 310 310 310 310 310 309 308 307 307 306 306 306 305 304 303 303 303 303 303 302 301 301 301 300 300 300 299 298 297 295 294 293 292 290 289 288 287 287 286 286 286 286 286 286 287 287 288 288 288 288 289 289 289 290 290 290 291 291 290
302 302 302 302 302 303 303 303 303 303 304 304 305 305 305 306 306 306 307 307 308 308 309 309 310 311 311 311 311 311 311 311 310 309 308 308 307 306 307 306 306 305 305 305 304 304 303 302 301 301 301 301 300 299 298 297 296 294 293 292 291 291 290 289 289 288 288 288 288 288 288 289 289 289 289 290 290 290 290 290 290 290 290 291 291 291
303 303 303 303 303 303 303 303 304 304 304 305 305 305 306 306 307 307 308 308 309 309 310 311 311 312 313 313 313 313 313 313 312 311 310 309 308 308 308 308 308 307 306 306 306 305 303 302 302 301 301 300 300 299 298 296 295 294 293 292 292 291 291 290 290 290 290 290 290 291 291 291 291 291 291 291 291 291 291 291 291 291 291 291 290 290
303 303 303 304 304 304 304 304 304 304 305 305 306 306 307 307 308 309 310 310 311 311 312 313 313 314 315 315 314 314 315 315 314 312 311 310 310 310 310 311 310 309 308 308 307 306 304 303 302 301 301 300 299 298 298 296 295 294 293 292 292 291 291 291 291 291 292 292 292 293 293 293 293 293 293 293 293 293 293 292 292 292 292 291 291 290
304 304 304 305 305 305 305 305 305 305 306 306 306 307 308 309 310 311 311 312 313 313 314 315 315 316 316 316 316 316 317 317 315 314 312 311 311 311 312 313 312 310 309 309 308 307 305 304 303 302 301 300 299 299 298 297 296 295 294 292 292 291 291 291 291 292 292 293 293 294 294 294 294 294 294 294 294 294 294 294 293 293 293 292 292 292
305 305 305 305 305 305 305 306 306 306 307 307 308 309 310 311 311 312 313 314 315 315 315 316 317 317 317 317 318 318 318 318 316 314 313 312 312 313 314 315 313 312 311 311 310 308 307 305 304 303 302 301 300 300 299 298 296 295 294 293 292 291 291 291 291 292 292 292 293 293 293 294 294 294 294 294 294 294 294 294 294 293 293 293 292 292
305 305 305 305 305 305 306 306 307 307 308 309 309 310 311 312 313 313 314 315 315 316 316 317 318 318 318 319 319 319 319 319 317 315 314 313 314 315 317 317 315 314 313 313 312 310 309 307 306 305 304 302 301 301 300 299 297 296 294 293 292 291 291 291 291 291 291 291 291 292 292 292 293 293 293 293 294 293 293 293 293 292 292 292 291 291
304 304 305 305 305 306 306 307 307 308 309 309 310 311 312 313 313 314 314 315 316 316 317 318 318 319 319 319 320 320 321 320 318 316 315 315 316 318 320 319 317 316 316 315 314 313 311 310 309 307 305 304 303 302 301 300 298 296 294 293 292 291 291 291 291 291 291 291 291 291 291 292 292 292 292 292 292 292 292 292 291 291 291 291 291 291
305 305 305 306 306 306 307 307 308 308 309 309 310 311 312 313 313 314 314 315 316 317 317 318 319 319 320 320 321 322 322 321 319 317 317 317 318 320 322 321 319 318 318 317 316 315 314 312 311 309 307 306 305 304 302 301 299 297 294 293 292 292 292 292 292 292 292 292 292 292 292 291 291 291 290 290 290 290 290 291 291 291 291 291 291 291
306 306 306 306 306 306 307 307 307 308 308 309 310 311 311 312 313 313 314 315 316 317 318 319 319 320 320 321 321 322 323 322 319 318 318 318 320 322 323 322 320 320 319 318 317 316 316 315 313 311 309 307 306 306 304 301 299 297 294 293 292 292 293 293 293 293 292 292 292 291 291 291 290 290 289 289 289 289 289 289 289 290 290 290 290 291
305 306 306 306 306 306 306 306 306 307 307 308 309 309 310 311 312 313 314 315 316 317 318 318 319 320 320 320 321 322 323 322 320 318 319 319 320 322 324 322 321 321 320 319 318 318 318 318 316 313 310 308 307 306 304 302 299 297 295 294 293 294 294 293 293 292 291 290 290 289 289 289 288 288 288 288 288 288 288 288 288 288 289 289 289 289
305 305 305 305 305 305 305 305 306 306 307 307 308 308 309 310 311 312 314 315 316 317 318 318 319 319 320 320 320 321 322 322 320 319 319 319 321 323 324 323 322 322 321 320 319 319 319 319 318 316 311 308 306 305 303 302 300 298 297 296 296 296 296 294 293 291 290 289 288 287 287 287 287 287 287 287 287 287 287 287 287 287 287 287 287 288
304 304 304 304 304 304 304 305 305 306 306 307 307 308 309 310 312 313 314 315 316 317 317 318 319 319 319 319 320 321 322 321 320 319 319 320 321 322 324 324 323 322 322 321 320 319 318 318 318 316 311 308 306 304 303 302 301 301 301 300 300 300 299 297 295 294 292 290 289 288 287 287 286 286 286 286 286 285 285 285 285 284 284 285 285 286
303 303 303 303 303 304 304 305 306 306 307 308 309 310 311 312 313 314 316 316 317 317 317 318 318 318 319 319 320 321 322 321 320 319 319 320 321 322 323 324 324 323 322 321 321 319 317 316 315 313 310 307 305 304 305 304 304 304 304 305 305 304 303 301 299 297 296 294 293 292 291 290 288 287 286 286 285 284 283 283 282 282 282 283 283 284
302 302 303 303 304 305 306 306 307 308 309 310 311 312 313 314 315 316 317 317 317 317 317 317 317 317 318 318 319 320 321 321 320 319 319 319 320 321 322 323 323 323 321 321 320 319 317 315 314 312 309 306 304 304 306 307 307 308 308 309 309 308 307 305 304 302 301 299 299 298 296 295 293 291 289 287 285 284 282 281 281 281 280 281 281 282
304 304 305 306 306 307 308 309 310 311 312 312 313 314 315 315 316 317 317 317 317 317 316 316 316 317 317 318 318 320 321 321 320 319 318 318 319 320 321 321 322 321 320 319 318 317 315 314 312 310 309 307 306 306 307 308 309 311 312 311 311 310 309 308 307 306 306 305 304 303 302 300 298 295 293 290 288 285 283 282 281 280 280 280 280 280
309 309 309 310 310 311 311 312 313 314 314 315 315 316 316 316 317 317 317 317 316 316 316 316 316 316 317 317 318 319 319 320 319 318 318 317 318 318 318 319 319 319 317 316 316 315 314 312 311 309 308 308 308 309 310 310 312 313 314 313 312 311 310 310 309 309 309 309 308 307 306 305 303 300 298 295 292 289 286 284 283 282 281 280 280 280
314 314 314 314 314 314 315 316 316 317 317 317 317 317 317 317 317 317 317 316 316 315 315 315 316 316 316 317 317 318 318 318 318 318 317 316 316 316 316 316 316 316 315 314 313 312 312 311 310 310 309 309 310 311 313 314 315 316 315 314 313 312 312 311 311 311 312 312 311 311 310 308 307 305 302 300 296 293 290 287 285 284 282 281 280 280
318 318 318 317 318 318 318 319 319 319 319 318 318 318 318 318 317 317 317 316 316 315 315 315 316 316 317 317 317 317 317 317 317 316 316 315 315 315 315 314 314 314 313 312 311 311 310 310 310 311 311 311 312 313 314 316 318 318 317 315 313 313 313 313 313 314 314 314 314 313 312 310 309 307 305 303 300 297 294 291 288 286 284 282 281 280
321 321 320 320 320 321 321 321 320 320 320 320 319 319 318 318 317 317 317 316 315 315 315 315 315 316 317 317 317 317 316 316 316 315 315 314 314 313 313 313 312 312 311 310 310 310 310 310 310 311 312 312 313 315 316 318 320 319 318 316 315 314 313 314 314 315 315 315 314 314 312 311 310 308 306 304 302 300 298 295 292 289 287 285 283 282
323 323 323 323 323 323 322 322 322 321 321 320 320 319 318 317 317 316 316 316 315 315 314 315 315 316 317 317 317 317 317 316 316 315 314 314 313 312 312 311 311 311 310 310 310 310 310 310 310 311 312 313 314 315 317 319 320 320 319 317 315 314 313 314 315 315 315 314 314 314 313 312 310 309 308 306 305 303 301 299 296 293 290 287 285 284
325 326 325 325 325 324 324 323 323 322 321 321 320 319 318 317 317 316 316 315 315 314 314 314 314 315 316 317 318 317 317 317 317 316 315 314 312 312 311 311 310 310 310 309 309 310 310 310 311 311 313 313 314 316 317 319 320 319 318 317 315 313 312 313 314 314 314 314 314 313 313 312 311 309 308 307 306 305 303 301 299 296 293 291 288 286
328 328 328 327 326 326 325 324 323 322 322 321 321 320 319 318 317 317 316 316 315 314 314 314 314 314 315 317 317 318 317 318 317 316 315 314 313 312 311 310 310 310 309 309 309 309 310 310 311 312 313 314 315 316 318 319 319 319 318 316 315 313 313 313 313 313 313 313 313 312 312 311 310 309 308 307 306 305 304 302 300 298 295 293 290 288
331 330 330 329 328 327 326 325 324 323 323 322 321 321 320 319 318 318 317 316 316 315 314 314 314 314 314 315 316 317 317 318 318 317 316 315 313 312 311 310 310 309 309 309 309 309 310 310 311 312 313 314 315 316 318 318 318 318 317 315 314 312 312 312 312 312 311 311 311 311 311 310 309 308 307 306 305 304 303 302 300 298 296 294 291 288
333 332 331 330 329 328 327 326 325 325 324 324 323 322 321 320 320 319 318 317 316 315 314 314 313 313 314 314 315 316 317 317 318 317 316 315 314 312 311 311 310 310 309 309 309 310 310 311 312 312 313 314 315 316 317 318 317 316 315 314 313 311 311 311 311 310 310 310 310 310 310 309 309 308 307 305 304 303 302 301 300 298 296 294 291 289
335 334 333 331 330 329 329 328 327 326 326 325 324 324 323 322 321 320 320 319 317 316 315 314 314 314 314 314 315 315 315 316 316 316 316 314 313 312 311 311 310 310 309 309 309 310 310 311 312 313 313 314 315 316 317 317 316 315 315 314 312 311 310 310 310 310 309 309 309 310 310 309 309 308 307 306 304 303 302 301 300 299 297 295 292 289
336 335 334 333 332 331 330 330 329 328 328 327 327 326 325 324 323 322 321 320 319 318 317 317 316 315 315 315 315 315 314 315 315 314 314 313 312 311 311 310 310 309 309 309 309 310 311 311 312 313 313 314 314 315 316 316 315 315 315 314 313 312 311 310 310 310 310 310 310 311 311 311 310 309 308 306 305 304 303 301 300 299 297 295 293 290
339 338 337 336 335 334 333 333 332 331 331 330 330 329 328 326 325 324 323 322 322 321 320 319 318 317 317 316 315 315 314 314 313 313 312 311 310 310 309 309 309 308 308 309 309 310 311 311 312 313 313 313 314 315 316 316 316 316 315 315 314 313 312 311 311 311 311 311 312 313 313 312 312 310 309 307 306 304 303 302 301 299 298 296 294 291
342 341 341 340 339 339 338 337 336 336 335 334 333 333 331 330 329 328 327 326 325 324 323 322 321 320 319 318 316 315 314 313 312 312 311 310 309 309 308 308 308 308 308 309 310 310 311 311 312 313 313 314 315 316 316 316 317 317 317 317 316 315 314 314 314 314 314 314 315 315 315 314 313 312 310 309 307 306 305 304 302 301 299 297 295 293
346 346 345 345 345 344 343 342 342 341 340 339 338 337 336 335 334 332 331 330 329 328 327 325 324 323 321 320 318 316 315 314 313 312 311 310 309 309 309 309 309 309 310 310 311 311 311 312 312 313 315 316 317 318 317 318 318 318 318 318 318 318 318 317 317 318 317 317 317 317 317 316 315 313 312 310 309 308 307 306 305 303 302 300 297 294
352 351 351 350 350 350 349 348 347 346 345 344 343 342 341 340 339 337 336 334 333 331 330 328 327 325 324 322 321 319 317 316 315 314 313 312 311 311 311 311 312 312 312 313 313 313 313 313 313 314 316 318 318 318 318 319 320 320 320 321 321 321 321 321 321 320 320 319 319 318 318 317 316 314 313 311 310 309 308 307 306 305 304 302 300 296
Height
3059 3058 3057 3056 3055 3054 3052 3052 3051 3050 3048 3047 3047 3046 3044 3043 3042 3040 3039 3038 3036 3035 3033 3032 3031 3030 3028 3027 3026 3024 3022 3021 3020 3018 3017 3015 3014 3012 3011 3010 3009 3007 3006 3005 3004 3003 3002 3001 3000 2999 2999 2998 2997 2997 2996 2995 2995 2994 2994 2994 2993 2993 2993 2992 2992 2992 2992 2992 2992 2992 2992 2992 2992 2992 2991 2991 2991 2992 2992 2992 2992 2993 2993 2993 2994 2994
3056 3054 3053 3052 3051 3050 3048 3047 3047 3046 3044 3043 3042 3041 3040 3039 3037 3036 3035 3034 3032 3031 3029 3028 3027 3025 3024 3022 3021 3020 3018 3017 3015 3013 3012 3011 3009 3007 3006 3005 3003 3002 3001 3000 2998 2997 2996 2995 2994 2993 2992 2992 2991 2990 2990 2989 2989 2988 2988 2987 2987 2987 2987 2987 2987 2987 2987 2987 2987 2987 2987 2987 2987 2987 2987 2987 2987 2987 2987 2987 2987 2987 2988 2988 2989 2989
3052 3051 3049 3048 3047 3046 3044 3043 3042 3041 3040 3038 3037 3036 3035 3034 3032 3031 3030 3029 3027 3026 3024 3023 3022 3020 3019 3017 3016 3015 3013 3012 3010 3008 3007 3005 3004 3002 3001 2999 2998 2996 2995 2994 2992 2992 2990 2989 2988 2987 2987 2986 2985 2984 2983 2983 2982 2982 2982 2981 2981 2981 2981 2981 2981 2981 2981 2981 2981 2981 2981 2981 2981 2981 2981 2982 2982 2982 2982 2982 2982 2982 2982 2982 2983 2984
3049 3047 3045 3044 3043 3042 3040 3038 3037 3036 3035 3033 3032 3030 3029 3028 3027 3026 3025 3023 3022 3021 3019 3018 3017 3015 3013 3012 3011 3009 3008 3006 3004 3003 3001 3000 2998 2997 2995 2993 2992 2991 2989 2988 2987 2986 2984 2983 2982 2981 2980 2979 2979 2978 2977 2977 2976 2976 2975 2975 2975 2974 2974 2974 2974 2974 2974 2974 2974 2975 2975 2975 2975 2976 2976 2976 2976 2977 2977 2977 2977 2977 2977 2977 2977 2978
3045 3043 3041 3040 3039 3037 3036 3034 3033 3031 3030 3028 3027 3025 3024 3023 3022 3020 3019 3018 3017 3015 3014 3012 3011 3009 3008 3006 3005 3004 3002 3001 2999 2997 2996 2994 2993 2991 2990 2988 2987 2985 2984 2983 2982 2980 2979 2978 2977 2976 2975 2974 2973 2972 2971 2971 2970 2969 2969 2968 2968 2968 2968 2967 2967 2967 2967 2967 2968 2968 2968 2969 2969 2970 2970 2970 2971 2971 2972 2972 2972 2972 2972 2972 2972 2973
3041 3039 3037 3036 3035 3033 3032 3030 3028 3027 3025 3024 3022 3021 3020 3018 3017 3015 3014 3013 3012 3010 3008 3007 3006 3004 3003 3001 3000 2998 2997 2996 2994 2993 2991 2990 2988 2987 2985 2984 2982 2981 2980 2978 2977 2976 2975 2973 2972 2971 2970 2968 2967 2967 2966 2965 2964 2964 2963 2962 2962 2962 2962 2961 2961 2961 2961 2961 2961 2961 2962 2962 2962 2963 2964 2964 2965 2965 2966 2966 2966 2967 2967 2967 2967 2968
3037 3035 3034 3032 3030 3029 3027 3026 3024 3023 3022 3020 3018 3017 3016 3014 3013 3011 3010 3008 3007 3006 3004 3002 3001 3000 2998 2997 2995 2994 2993 2992 2990 2989 2987 2986 2985 2983 2982 2980 2979 2977 2976 2975 2973 2972 2971 2969 2968 2967 2965 2964 2963 2962 2961 2960 2959 2959 2958 2957 2957 2956 2956 2955 2955 2955 2954 2954 2954 2954 2955 2955 2956 2956 2957 2957 2958 2959 2959 2960 2960 2961 2961 2962 2962 2962
3033 3031 3030 3029 3027 3025 3024 3022 3021 3019 3018 3016 3014 3013 3012 3010 3009 3007 3006 3004 3002 3001 3000 2998 2997 2995 2994 2993 2992 2990 2988 2987 2987 2986 2984 2983 2982 2980 2979 2977 2976 2974 2973 2972 2970 2969 2967 2966 2964 2963 2962 2960 2959 2958 2957 2956 2955 2954 2953 2953 2952 2952 2951 2950 2950 2949 2949 2948 2948 2948 2948 2948 2949 2949 2950 2951 2951 2952 2953 2953 2954 2955 2955 2956 2956 2957
3030 3028 3026 3025 3024 3022 3020 3018 3017 3016 3015 3012 3010 3009 3008 3007 3005 3003 3002 3001 2999 2997 2996 2994 2993 2992 2991 2990 2988 2987 2985 2984 2983 2982 2981 2980 2978 2977 2976 2975 2973 2972 2970 2969 2967 2966 2964 2962 2961 2959 2958 2957 2955 2954 2953 2952 2951 2950 2949 2948 2948 2947 2946 2946 2945 2945 2944 2943 2943 2943 2942 2942 2942 2943 2943 2944 2944 2945 2946 2947 2947 2948 2949 2949 2950 2951
3026 3024 3022 3021 3019 3019 3017 3015 3012 3011 3011 3009 3007 3004 3003 3002 3001 2999 2997 2997 2995 2994 2992 2991 2990 2988 2987 2986 2985 2984 2982 2981 2980 2979 2978 2977 2975 2974 2973 2972 2971 2969 2967 2966 2964 2963 2961 2959 2958 2956 2955 2953 2952 2951 2949 2948 2947 2946 2945 2944 2943 2943 2942 2942 2941 2940 2940 2939 2938 2938 2937 2937 2937 2937 2937 2937 2938 2938 2939 2940 2941 2941 2942 2942 2943 2944
3021 3020 3019 3017 3015 3013 3013 3011 3008 3007 3006 3005 3002 3000 2998 2998 2997 2995 2994 2992 2992 2991 2990 2988 2987 2986 2985 2983 2982 2981 2980 2978 2977 2975 2974 2973 2972 2971 2969 2968 2967 2966 2964 2963 2962 2960 2958 2957 2955 2953 2952 2951 2949 2947 2946 2945 2944 2942 2942 2941 2940 2939 2938 2937 2937 2936 2935 2935 2934 2933 2933 2932 2932 2932 2932 2932 2932 2932 2933 2933 2934 2934 2935 2936 2936 2937
3017 3015 3014 3012 3011 3009 3008 3006 3004 3002 3001 3000 2999 2997 2995 2994 2993 2992 2991 2989 2988 2988 2987 2985 2984 2983 2982 2980 2978 2977 2976 2975 2974 2972 2971 2970 2969 2967 2966 2965 2963 2962 2961 2960 2958 2957 2956 2954 2952 2951 2949 2948 2946 2945 2943 2942 2941 2939 2938 2937 2936 2935 2934 2933 2933 2932 2931 2931 2930 2929 2929 2928 2928 2927 2927 2927 2927 2927 2927 2927 2927 2928 2928 2929 2930 2930
3012 3011 3010 3008 3006 3005 3003 3002 3000 2998 2997 2996 2995 2994 2992 2991 2990 2989 2988 2986 2985 2984 2983 2982 2981 2980 2979 2978 2976 2974 2972 2972 2970 2969 2968 2966 2965 2964 2963 2961 2960 2959 2958 2957 2955 2953 2952 2951 2950 2948 2947 2945 2944 2942 2940 2939 2937 2936 2935 2933 2932 2932 2931 2930 2929 2928 2927 2927 2926 2925 2925 2924 2923 2923 2922 2922 2922 2922 2922 2922 2922 2922 2922 2923 2923 2924
3008 3007 3006 3004 3002 3001 2999 2998 2997 2995 2993 2993 2992 2991 2989 2988 2987 2986 2985 2983 2982 2981 2981 2979 2977 2976 2976 2975 2973 2971 2969 2968 2967 2966 2965 2963 2962 2961 2959 2958 2956 2955 2955 2953 2951 2950 2949 2948 2947 2945 2943 2942 2941 2939 2937 2936 2934 2933 2931 2930 2929 2928 2927 2926 2925 2924 2924 2923 2922 2922 2921 2920 2920 2919 2918 2918 2918 2917 2917 2917 2917 2917 2917 2917 2917 2918
3005 3003 3002 3000 2998 2997 2996 2995 2993 2992 2991 2990 2989 2988 2987 2985 2984 2983 2982 2981 2979 2978 2977 2976 2975 2973 2972 2971 2970 2968 2966 2965 2964 2963 2962 2960 2959 2958 2957 2955 2952 2951 2951 2950 2948 2946 2945 2944 2943 2941 2940 2939 2937 2936 2934 2933 2931 2930 2928 2927 2925 2924 2923 2922 2921 2921 2920 2919 2918 2918 2917 2916 2916 2915 2914 2914 2914 2913 2913 2912 2912 2912 2912 2912 2912 2912
3001 3000 2998 2997 2995 2994 2993 2992 2991 2990 2988 2987 2987 2986 2984 2983 2982 2981 2980 2978 2977 2975 2974 2973 2972 2971 2969 2968 2967 2966 2964 2962 2960 2959 2959 2957 2956 2954 2953 2952 2949 2948 2947 2947 2945 2943 2941 2941 2939 2938 2937 2935 2934 2932 2931 2930 2928 2927 2925 2923 2922 2921 2920 2918 2917 2917 2916 2915 2915 2914 2913 2913 2912 2912 2911 2910 2910 2909 2909 2909 2908 2908 2908 2908 2907 2907
2997 2996 2995 2994 2993 2992 2991 2990 2989 2987 2986 2985 2984 2983 2982 2981 2979 2978 2977 2975 2974 2972 2971 2970 2969 2968 2967 2965 2964 2963 2962 2959 2957 2956 2956 2955 2952 2951 2950 2949 2946 2944 2943 2943 2942 2940 2938 2937 2936 2934 2933 2932 2931 2929 2928 2926 2925 2923 2922 2920 2919 2918 2917 2915 2914 2913 2912 2912 2911 2910 2910 2909 2908 2908 2907 2907 2906 2906 2905 2905 2905 2904 2904 2904 2903 2903
2995 2994 2992 2992 2991 2990 2989 2987 2987 2985 2984 2983 2982 2981 2979 2978 2977 2975 2974 2972 2971 2970 2968 2967 2966 2965 2964 2962 2961 2960 2959 2957 2954 2952 2952 2951 2950 2948 2947 2945 2943 2941 2940 2939 2938 2936 2935 2934 2932 2931 2930 2928 2927 2926 2924 2923 2922 2920 2919 2917 2916 2915 2913 2912 2911 2910 2909 2908 2907 2907 2906 2905 2905 2904 2904 2903 2903 2902 2902 2901 2901 2901 2900 2900 2900 2899
2992 2991 2991 2989 2988 2987 2987 2986 2984 2983 2982 2980 2979 2978 2977 2975 2974 2973 2971 2970 2968 2967 2966 2964 2963 2962 2961 2960 2958 2956 2955 2954 2952 2949 2949 2948 2947 2945 2944 2942 2940 2938 2937 2936 2935 2933 2932 2930 2929 2928 2927 2925 2924 2922 2921 2920 2918 2917 2916 2914 2913 2912 2910 2909 2908 2907 2906 2905 2904 2903 2903 2902 2902 2901 2900 2900 2899 2899 2898 2898 2897 2897 2897 2896 2896 2896
2990 2989 2988 2987 2986 2985 2984 2983 2982 2981 2979 2978 2977 2976 2974 2973 2972 2970 2969 2967 2966 2965 2963 2962 2961 2959 2958 2957 2955 2953 2952 2951 2949 2947 2945 2945 2943 2942 2940 2939 2937 2935 2934 2933 2932 2930 2929 2927 2926 2925 2924 2922 2921 2919 2918 2917 2915 2914 2912 2911 2910 2909 2907 2906 2905 2904 2903 2902 2901 2901 2900 2899 2898 2898 2897 2897 2896 2896 2895 2895 2894 2894 2893 2893 2893 2892
2988 2987 2986 2985 2984 2983 2982 2981 2980 2978 2977 2975 2974 2973 2972 2970 2969 2967 2966 2965 2964 2962 2961 2960 2958 2957 2956 2954 2952 2951 2949 2948 2946 2944 2942 2941 2940 2939 2937 2936 2934 2932 2931 2930 2929 2927 2926 2924 2923 2922 2921 2920 2918 2917 2915 2914 2912 2911 2909 2908 2907 2906 2904 2903 2902 2901 2900 2899 2898 2898 2897 2896 2896 2895 2894 2894 2893 2892 2892 2892 2891 2891 2890 2890 2889 2889
2986 2985 2984 2983 2982 2981 2979 2978 2977 2976 2974 2973 2972 2970 2969 2968 2967 2965 2964 2963 2961 2960 2958 2957 2956 2954 2953 2952 2950 2948 2947 2945 2943 2941 2939 2938 2937 2935 2934 2933 2931 2929 2927 2927 2926 2924 2922 2921 2920 2919 2918 2917 2915 2914 2912 2911 2909 2908 2907 2905 2904 2903 2902 2901 2900 2898 2897 2897 2896 2895 2894 2894 2893 2892 2892 2891 2890 2890 2889 2888 2888 2887 2887 2887 2886 2886
2984 2983 2982 2981 2980 2978 2977 2976 2974 2973 2972 2971 2969 2968 2966 2965 2964 2962 2961 2960 2959 2957 2956 2954 2953 2952 2951 2949 2947 2946 2944 2943 2941 2938 2936 2934 2932 2932 2931 2930 2928 2926 2924 2923 2922 2921 2919 2918 2917 2916 2915 2913 2912 2911 2910 2908 2907 2905 2904 2903 2902 2900 2899 2898 2897 2896 2895 2894 2893 2892 2892 2891 2890 2889 2889 2888 2887 2887 2886 2885 2885 2884 2884 2883 2883 2883
2982 2981 2979 2978 2977 2976 2975 2973 2972 2971 2969 2968 2967 2965 2964 2962 2961 2960 2958 2957 2956 2954 2953 2952 2951 2949 2948 2947 2945 2943 2941 2940 2938 2935 2933 2931 2929 2928 2927 2926 2925 2922 2921 2920 2919 2918 2916 2914 2914 2913 2912 2911 2909 2908 2907 2906 2904 2903 2902 2900 2899 2898 2897 2896 2895 2894 2893 2892 2891 2890 2889 2888 2888 2887 2886 2885 2885 2884 2883 2882 2882 2881 2881 2880 2880 2880
2979 2978 2977 2976 2975 2973 2972 2971 2969 2968 2967 2965 2964 2963 2961 2960 2959 2957 2956 2955 2953 2952 2950 2949 2948 2947 2945 2944 2942 2941 2939 2937 2935 2933 2930 2928 2926 2925 2925 2924 2922 2919 2917 2917 2916 2915 2913 2911 2910 2910 2909 2908 2907 2905 2904 2903 2902 2901 2899 2898 2897 2896 2895 2894 2893 2892 2891 2890 2889 2888 2887 2886 2885 2884 2884 2883 2882 2881 2880 2880 2879 2878 2878 2877 2877 2877
2977 2976 2975 2973 2972 2971 2970 2968 2967 2966 2964 2962 2961 2960 2959 2957 2956 2955 2953 2952 2951 2949 2947 2946 2945 2944 2942 2941 2940 2938 2937 2935 2932 2930 2928 2925 2923 2922 2922 2921 2919 2917 2915 2914 2913 2912 2910 2908 2907 2907 2906 2905 2904 2903 2902 2901 2899 2898 2897 2896 2895 2894 2893 2892 2891 2890 2889 2888 2887 2886 2885 2884 2883 2882 2881 2880 2879 2879 2878 2877 2876 2876 2875 2874 2874 2874
2975 2974 2972 2971 2970 2969 2967 2966 2964 2963 2962 2960 2959 2957 2956 2955 2954 2952 2951 2950 2948 2947 2945 2944 2942 2941 2940 2938 2937 2936 2934 2932 2930 2928 2926 2923 2921 2920 2919 2918 2916 2914 2912 2911 2910 2909 2908 2906 2905 2904 2903 2902 2901 2900 2899 2898 2897 2896 2895 2894 2893 2892 2891 2890 2889 2888 2887 2887 2885 2884 2883 2882 2881 2880 2879 2878 2877 2876 2875 2874 2873 2873 2872 2872 2871 2871
2973 2972 2971 2969 2968 2966 2965 2963 2962 2961 2959 2958 2957 2955 2954 2953 2951 2950 2948 2947 2946 2945 2943 2942 2940 2938 2937 2936 2935 2933 2932 2930 2927 2925 2923 2921 2919 2918 2917 2915 2913 2911 2910 2908 2907 2906 2906 2904 2902 2901 2900 2899 2899 2898 2897 2896 2895 2894 2893 2892 2892 2891 2890 2889 2888 2887 2886 2885 2884 2882 2882 2880 2879 2878 2877 2876 2875 2874 2873 2872 2871 2870 2869 2868 2868 2867
2971 2970 2968 2967 2966 2964 2963 2961 2960 2959 2957 2956 2954 2953 2952 2951 2949 2948 2946 2945 2944 2942 2941 2939 2938 2936 2934 2933 2932 2931 2930 2928 2925 2922 2921 2918 2917 2915 2915 2912 2910 2909 2907 2905 2904 2903 2903 2902 2901 2899 2897 2897 2896 2896 2895 2894 2893 2892 2892 2891 2890 2889 2888 2887 2886 2885 2884 2883 2882 2881 2879 2878 2877 2876 2875 2874 2872 2872 2870 2869 2868 2867 2866 2865 2865 2864
2969 2967 2966 2965 2963 2962 2961 2959 2958 2957 2956 2954 2953 2952 2950 2949 2947 2946 2944 2943 2942 2940 2938 2937 2936 2934 2932 2931 2929 2928 2927 2926 2923 2921 2918 2916 2914 2913 2912 2910 2908 2907 2905 2903 2901 2899 2900 2900 2899 2897 2895 2894 2894 2894 2893 2892 2892 2891 2890 2889 2889 2888 2887 2886 2884 2883 2882 2881 2880 2878 2877 2876 2875 2874 2872 2871 2870 2869 2868 2867 2865 2864 2863 2862 2862 2861
2967 2965 2964 2962 2961 2960 2959 2957 2957 2955 2954 2953 2952 2950 2949 2947 2946 2944 2943 2941 2940 2938 2937 2935 2933 2932 2930 2928 2927 2925 2924 2923 2921 2919 2917 2914 2912 2911 2910 2908 2906 2904 2903 2902 2899 2897 2896 2896 2897 2896 2894 2893 2892 2892 2891 2891 2890 2889 2888 2887 2887 2886 2885 2884 2883 2882 2880 2879 2878 2876 2875 2874 2872 2871 2870 2869 2868 2867 2866 2864 2863 2862 2860 2859 2858 2858
2965 2963 2962 2961 2960 2958 2957 2956 2955 2954 2952 2951 2950 2949 2947 2946 2944 2943 2941 2939 2938 2936 2935 2933 2931 2930 2928 2927 2925 2923 2922 2921 2919 2917 2915 2912 2910 2909 2908 2906 2904 2902 2901 2900 2898 2896 2894 2893 2893 2893 2893 2892 2891 2890 2889 2889 2888 2887 2886 2886 2885 2884 2883 2882 2880 2879 2878 2877 2876 2874 2873 2872 2870 2869 2867 2866 2865 2864 2863 2862 2860 2859 2857 2856 2855 2854
2963 2962 2961 2960 2958 2957 2956 2955 2953 2952 2951 2950 2948 2947 2945 2944 2942 2941 2939 2937 2936 2934 2932 2931 2929 2928 2926 2925 2923 2922 2920 2919 2917 2915 2912 2910 2908 2907 2906 2904 2902 2900 2899 2897 2897 2895 2893 2892 2891 2891 2891 2890 2889 2888 2887 2887 2886 2885 2884 2883 2882 2882 2881 2879 2878 2876 2875 2874 2873 2872 2870 2869 2868 2867 2865 2864 2862 2861 2860 2859 2857 2856 2854 2853 2852 2851
2962 2961 2960 2958 2957 2956 2954 2953 2952 2950 2949 2948 2946 2945 2943 2942 2940 2939 2937 2936 2934 2932 2931 2929 2927 2926 2924 2923 2921 2920 2918 2917 2915 2912 2910 2908 2906 2904 2903 2902 2901 2899 2897 2896 2895 2894 2892 2891 2890 2889 2889 2888 2888 2887 2886 2885 2884 2883 2882 2881 2880 2878 2877 2876 2875 2873 2872 2871 2870 2868 2867 2866 2865 2864 2862 2861 2860 2858 2857 2856 2854 2853 2852 2850 2849 2848
2961 2960 2958 2957 2956 2954 2953 2952 2950 2949 2947 2946 2944 2943 2941 2940 2938 2937 2935 2933 2932 2930 2929 2927 2926 2924 2922 2921 2919 2918 2916 2915 2913 2911 2908 2907 2904 2902 2901 2900 2899 2897 2895 2894 2893 2892 2891 2890 2889 2888 2887 2886 2885 2885 2884 2883 2881 2880 2879 2878 2877 2875 2874 2873 2871 2870 2868 2867 2866 2865 2864 2863 2862 2860 2859 2858 2857 2855 2854 2852 2851 2850 2849 2847 2846 2845
2959 2958 2957 2955 2954 2952 2951 2950 2948 2947 2946 2944 2942 2941 2939 2938 2936 2935 2933 2932 2930 2929 2927 2926 2924 2923 2921 2919 2917 2916 2914 2913 2911 2909 2907 2905 2903 2901 2899 2898 2897 2896 2894 2892 2891 2890 2889 2888 2887 2886 2885 2884 2883 2882 2882 2881 2880 2878 2877 2876 2874 2872 2871 2870 2868 2867 2865 2864 2863 2862 2861 2859 2858 2857 2856 2854 2853 2852 2850 2849 2848 2847 2845 2844 2843 2842
2957 2956 2955 2953 2952 2951 2949 2948 2947 2945 2944 2942 2941 2939 2937 2936 2935 2933 2932 2930 2929 2927 2926 2924 2922 2921 2919 2917 2916 2914 2912 2910 2909 2907 2905 2903 2901 2899 2897 2896 2895 2894 2892 2890 2889 2888 2887 2886 2885 2884 2883 2882 2880 2879 2879 2878 2877 2876 2875 2873 2871 2870 2868 2867 2865 2864 2862 2861 2860 2858 2857 2856 2854 2853 2852 2851 2849 2848 2847 2845 2844 2843 2842 2841 2840 2839
2956 2954 2953 2952 2950 2949 2947 2946 2945 2943 2942 2940 2939 2937 2936 2934 2933 2932 2930 2928 2927 2926 2924 2922 2921 2920 2918 2916 2914 2912 2910 2909 2907 2905 2903 2902 2900 2898 2896 2894 2893 2892 2891 2889 2887 2886 2885 2883 2882 2881 2880 2880 2879 2877 2876 2875 2874 2873 2872 2870 2869 2867 2865 2864 2862 2861 2859 2857 2856 2855 2853 2852 2850 2849 2847 2847 2845 2844 2843 2842 2841 2839 2838 2837 2836 2835
2954 2952 2951 2950 2948 2947 2946 2944 2943 2942 2940 2938 2937 2936 2934 2933 2931 2930 2928 2927 2925 2924 2922 2921 2919 2918 2917 2915 2913 2911 2909 2907 2906 2904 2902 2900 2898 2896 2894 2892 2891 2890 2889 2887 2886 2884 2883 2882 2880 2879 2878 2877 2876 2875 2875 2873 2872 2870 2868 2867 2866 2864 2863 2861 2859 2857 2856 2854 2853 2851 2850 2848 2847 2845 2843 2842 2841 2840 2839 2838 2837 2836 2834 2833 2832 2832
2952 2951 2949 2948 2947 2945 2944 2942 2941 2940 2938 2937 2936 2934 2932 2931 2930 2928 2927 2925 2924 2922 2921 2919 2918 2917 2915 2914 2912 2910 2908 2906 2904 2902 2900 2898 2897 2895 2893 2891 2890 2888 2887 2885 2884 2882 2881 2880 2878 2877 2876 2874 2873 2872 2872 2871 2869 2867 2865 2863 2862 2861 2860 2858 2856 2855 2853 2851 2850 2847 2846 2844 2843 2841 2839 2838 2837 2836 2835 2834 2833 2832 2831 2829 2828 2827
2950 2949 2948 2946 2945 2944 2942 2941 2940 2938 2937 2935 2934 2932 2931 2929 2928 2927 2925 2924 2922 2921 2919 2918 2916 2915 2914 2912 2911 2909 2907 2905 2903 2901 2899 2897 2895 2893 2891 2890 2888 2886 2885 2883 2882 2881 2879 2878 2876 2875 2874 2872 2871 2870 2869 2868 2867 2865 2862 2860 2858 2857 2857 2855 2854 2852 2850 2848 2847 2845 2842 2840 2838 2837 2835 2833 2832 2832 2831 2830 2828 2828 2827 2826 2825 2823
2949 2947 2946 2945 2944 2942 2941 2940 2938 2937 2936 2934 2932 2931 2929 2928 2926 2925 2924 2922 2921 2919 2918 2917 2915 2913 2912 2911 2910 2907 2906 2903 2901 2899 2897 2895 2893 2892 2890 2888 2886 2885 2883 2882 2880 2879 2877 2876 2874 2872 2871 2870 2868 2867 2866 2865 2864 2862 2860 2858 2856 2854 2853 2853 2852 2850 2847 2845 2843 2842 2839 2837 2835 2833 2831 2829 2828 2827 2826 2825 2824 2823 2822 2822 2821 2820
2947 2946 2945 2943 2942 2941 2940 2938 2937 2936 2934 2933 2931 2929 2928 2926 2924 2923 2922 2920 2919 2917 2916 2915 2913 2912 2910 2909 2908 2906 2904 2902 2900 2898 2896 2894 2892 2890 2888 2886 2885 2883 2881 2880 2878 2877 2876 2874 2872 2871 2869 2867 2866 2865 2863 2862 2861 2860 2858 2856 2853 2851 2850 2849 2849 2847 2845 2842 2841 2838 2836 2834 2832 2830 2828 2826 2825 2823 2822 2821 2820 2819 2818 2817 2817 2816
2946 2945 2943 2942 2941 2940 2938 2937 2936 2934 2933 2931 2930 2928 2926 2924 2923 2921 2920 2918 2917 2916 2914 2912 2911 2910 2908 2907 2906 2904 2903 2901 2899 2897 2895 2892 2890 2888 2886 2885 2883 2881 2880 2878 2876 2874 2873 2872 2871 2869 2867 2866 2864 2862 2861 2860 2858 2857 2856 2854 2852 2849 2847 2846 2845 2844 2842 2840 2838 2836 2833 2831 2829 2827 2825 2823 2821 2820 2818 2817 2816 2815 2814 2813 2812 2812
2945 2943 2942 2941 2940 2938 2937 2936 2934 2933 2932 2930 2928 2927 2925 2923 2921 2920 2918 2917 2915 2913 2912 2911 2909 2907 2906 2905 2904 2902 2901 2899 2898 2896 2893 2891 2889 2887 2885 2883 2882 2880 2878 2876 2874 2873 2871 2869 2868 2867 2866 2864 2862 2860 2859 2857 2856 2854 2853 2852 2849 2847 2845 2844 2842 2841 2838 2837 2835 2833 2831 2828 2826 2823 2821 2820 2818 2816 2815 2813 2812 2811 2810 2809 2808 2807
2944 2942 2941 2940 2938 2937 2936 2934 2933 2932 2930 2928 2927 2925 2923 2922 2920 2918 2917 2915 2913 2912 2910 2908 2907 2905 2904 2902 2901 2900 2898 2897 2896 2894 2892 2890 2888 2886 2884 2882 2880 2878 2876 2874 2872 2871 2869 2867 2866 2864 2863 2861 2860 2859 2857 2855 2853 2851 2850 2849 2847 2845 2843 2842 2840 2838 2836 2833 2832 2830 2828 2826 2823 2820 2818 2816 2814 2812 2811 2810 2808 2807 2806 2805 2804 2803
2942 2941 2940 2939 2937 2936 2934 2933 2932 2930 2929 2927 2926 2924 2922 2920 2918 2917 2915 2913 2912 2910 2908 2907 2905 2903 2902 2900 2899 2897 2896 2894 2893 2892 2890 2888 2886 2884 2882 2880 2878 2876 2874 2872 2870 2868 2867 2865 2863 2862 2860 2858 2857 2856 2855 2854 2852 2849 2847 2846 2844 2842 2841 2839 2837 2836 2833 2831 2828 2826 2824 2822 2820 2817 2815 2812 2811 2809 2808 2807 2805 2804 2802 2801 2800 2799
2941 2940 2939 2937 2936 2935 2933 2932 2930 2929 2927 2926 2924 2923 2921 2919 2917 2915 2913 2912 2910 2908 2906 2905 2903 2902 2900 2898 2897 2895 2893 2892 2890 2889 2887 2885 2884 2882 2880 2878 2876 2874 2872 2870 2868 2866 2865 2863 2861 2860 2858 2856 2854 2853 2852 2851 2850 2847 2845 2843 2841 2839 2837 2836 2834 2832 2830 2827 2825 2823 2821 2819 2816 2814 2811 2809 2807 2806 2804 2803 2802 2801 2800 2798 2797 2796
2940 2939 2938 2936 2935 2934 2932 2931 2929 2928 2926 2925 2923 2922 2920 2918 2916 2914 2912 2910 2908 2906 2904 2902 2901 2899 2898 2896 2894 2892 2891 2889 2887 2886 2884 2883 2881 2879 2877 2876 2874 2872 2870 2868 2866 2864 2862 2861 2859 2858 2856 2854 2852 2850 2849 2848 2847 2845 2842 2840 2838 2836 2834 2832 2830 2828 2826 2824 2822 2819 2817 2815 2813 2810 2808 2805 2803 2802 2801 2800 2799 2798 2797 2796 2794 2792
2939 2938 2937 2935 2934 2932 2931 2930 2928 2927 2925 2923 2922 2920 2918 2916 2914 2912 2910 2908 2906 2904 2902 2901 2899 2897 2895 2894 2892 2890 2888 2887 2885 2884 2882 2880 2878 2876 2874 2872 2871 2869 2867 2865 2864 2862 2860 2858 2857 2856 2854 2852 2850 2847 2845 2843 2842 2841 2839 2837 2835 2832 2830 2827 2826 2824 2822 2819 2817 2815 2813 2811 2809 2807 2804 2802 2799 2797 2796 2796 2795 2795 2794 2793 2791 2789
2939 2937 2936 2934 2933 2932 2930 2928 2927 2925 2924 2922 2920 2918 2917 2915 2913 2911 2908 2907 2904 2902 2900 2898 2897 2895 2893 2891 2890 2888 2886 2885 2883 2881 2880 2878 2876 2874 2872 2870 2868 2866 2864 2862 2861 2859 2857 2855 2854 2853 2853 2852 2849 2845 2842 2840 2839 2837 2836 2834 2832 2829 2826 2823 2821 2819 2817 2815 2812 2811 2809 2807 2805 2803 2801 2798 2796 2793 2792 2791 2791 2791 2791 2790 2788 2786